Regional Weather Roundup
Issued by NWS

Home | Current Version | Previous Version | Text Only | Print | Product List | Glossary Off
Versions: 1 2 3 4 5 6 7 8 9 10 11 12 13 14 15 16 17 18 19 20 21 22 23 24 25 26 27 28 29 30 31 32 33 34 35 36 37 38 39 40 41 42 43 44 45 46 47 48 49 50

000
ASUS43 KDMX 210906
RWRIA

WEATHER ROUNDUP FOR IOWA
NATIONAL WEATHER SERVICE DES MOINES IA
300 AM CST SUN JAN 21 2018

NOTE: "FAIR" INDICATES FEW OR NO CLOUDS BELOW 12,000 FEET WITH NO
SIGNIFICANT WEATHER AND/OR OBSTRUCTIONS TO VISIBILITY.

* - THESE STATIONS ARE NOT NWS STATIONS...THUS NOT UNDER NWS
QUALITY CONTROL.  THEY ALSO DO NOT REPORT WEATHER SUCH
AS PRECIPITATION OR FOG.

IAZ001>003-012>014-020>022-031>034-043>046-211000-
   NORTHWEST IOWA

CITY           SKY/WX    TMP DP  RH WIND       PRES   REMARKS
CARROLL *      CLOUDY    34  34 100 N3        29.88S FOG
CHEROKEE *     CLOUDY    31  31 100 N7        29.90S WCI  24
DENISON *      CLOUDY    34  34 100 NE5       29.88S WCI  30
LE MARS *      CLOUDY    27  27 100 N8        29.91R WCI  18
ORANGE CITY *  CLOUDY    34  30  86 NE6       29.91R WCI  29
SHELDON *      CLOUDY    28  28 100 NE7       29.90S WCI  21
SIOUX CITY     CLOUDY    31  29  92 NE5       29.90R WCI  26
SPENCER        CLOUDY    27  25  92 NE7       29.92R WCI  19
STORM LAKE *   CLOUDY    30  30 100 NE10      29.89R WCI  21
$$

IAZ055>058-069>071-079>083-090>094-211000-
   SOUTHWEST IOWA

CITY           SKY/WX    TMP DP  RH WIND       PRES   REMARKS
ATLANTIC *     CLOUDY    37  37 100 NE7       29.85S WCI  32
AUDUBON *      CLOUDY    39  36  87 CALM      29.88R FOG
CLARINDA *     CLOUDY    41  41 100 NE6         N/A
COUNCIL BLFS * CLOUDY    37  37 100 N7        29.84S FOG     WCI  32
CRESTON *      CLOUDY    41  39  93 E7        29.86S FOG
HARLAN  *      CLOUDY    37  37 100 N8        29.89S WCI  31
LAMONI         CLOUDY    43  40  89 E5        29.84S
RED OAK *      CLOUDY    41  39  93 N6        29.84S
SHENANDOAH *   CLOUDY    39  39 100 NE6       29.83F FOG     WCI  35
$$

IAZ047>049-059>061-072>074-084-211000-
   CENTRAL IOWA

CITY           SKY/WX    TMP DP  RH WIND       PRES   REMARKS
AMES           CLOUDY    37  36  96 CALM      29.89S FOG
ANKENY *       CLOUDY    37  36  93 N3        29.90S FOG
BOONE *        CLOUDY    36  34  93 CALM      29.88S FOG
CHARITON *     CLOUDY    43  41  93 SE6       29.86S
DES MOINES     CLOUDY    39  36  89 NE7       29.87S WCI  34
GRINNELL*      CLOUDY    36  34  94 E7        29.91R FOG     WCI  30
KNOXVILLE *    CLOUDY    41  37  87 E7        29.86F FOG
MARSHALLTOWN   CLOUDY    37  36  96 E7        29.89F FOG     WCI  32
NEWTON *       CLOUDY    37  37 100 E6        29.89S FOG     WCI  33
PELLA *        CLOUDY    40  38  93 E3        29.90S FOG
PERRY *        CLOUDY    38  36  95 NE6       29.88F FOG     WCI  33
$$

IAZ004>006-015-016-023>025-035-036-211000-
   NORTH CENTRAL IOWA

CITY           SKY/WX    TMP DP  RH WIND       PRES   REMARKS
ALGONA *       CLOUDY    32 N/A N/A N10       29.90F WCI  24
CLARION *      CLOUDY    30  30 100 NE6       29.90S WCI  24
ESTHERVILLE    CLOUDY    29  28  96 N6        29.92R WCI  23
FORT DODGE *   CLOUDY    30  29  96 N6        29.90S FOG     WCI  24
MASON CITY     CLOUDY    25  24  96 N8        29.92S FOG     WCI  16
FOREST CITY *    N/A     32  30  93 N6        29.91F WCI  26
WEBSTER CITY * CLOUDY    34  34 100 SE8G14    29.88S FOG     WCI  27
IOWA FALLS *   CLOUDY    34  33  96 NE5       29.91F FOG     WCI  30
$$

IAZ007>011-017>019-026>030-037>042-050>054-066-211000-
   NORTHEAST IOWA

CITY           SKY/WX    TMP DP  RH WIND       PRES   REMARKS
CEDAR RAPIDS   CLOUDY    38  36  92 E6        29.91S FOG     WCI  33
CHARLES CITY *   N/A     28  28 100 NE6       29.92S FOG     WCI  22
CLINTON *      CLOUDY    36  35  96 E7        29.95S FOG     WCI  30
DECORAH *        N/A     32  32 100 CALM      29.92S FOG
DUBUQUE        CLOUDY    34  32  92 CALM      29.93S FOG
MONTICELLO *   CLOUDY    34  34 100 CALM      29.93F FOG
OELWEIN *      FOG       28  28 100 S8        29.93R VSB 1/4 WCI  20
WATERLOO       CLOUDY    29  28  96 CALM      29.93R FOG
$$

IAZ064-065-067-068-078-211000-
   EAST CENTRAL IOWA

CITY           SKY/WX    TMP DP  RH WIND       PRES   REMARKS
DAVENPORT      CLOUDY    41  37  86 SE5       29.96R
IOWA CITY      CLOUDY    39  35  86 CALM      29.94S FOG
MT. PLEASANT * CLOUDY    39  37  93 E7        29.91F WCI  34
MUSCATINE *    CLOUDY    39  36  87 CALM      29.93S
QUAD CITIES    CLOUDY    40  37  89 CALM      29.94R
$$

IAZ062-063-075>077-085>089-095>099-211000-
   SOUTHEAST IOWA

CITY           SKY/WX    TMP DP  RH WIND       PRES   REMARKS
BURLINGTON     CLOUDY    42  37  82 E3        29.92R
FAIRFIELD *    CLOUDY    41  39  93 E7        29.89F
FORT MADISON * CLOUDY    43  39  87 SE6       29.92S
KEOKUK *       CLOUDY    43  39  87 SE7       29.90S
OSKALOOSA *    CLOUDY    40  38  93 E8        29.89F FOG     WCI  34
OTTUMWA        CLOUDY    41  38  89 E6        29.88F
WASHINGTON *   CLOUDY    39  39 100 E6        29.92S FOG     WCI  35
$$

ABBREVIATIONS USED IN REMARKS
   TC - TEMPERATURES IN CELSIUS
  WCI - WIND CHILL INDEX
   HX - HEAT INDEX
  VSB - VISIBILITY
$$





USA.gov is the U.S. government's official web portal to all federal, state and local government web resources and services.